When you browse on this site, cookies collect data to enhance your experience and personalize the content and advertising you see.
Visit our Privacy Policy to learn more. By continuing to use the site, you agree to this use of cookies and data.
  • In France
  • List of Countries
  • For 7 days
  • Water Temperature
  • Weather Map
  • Weather Widgets
  • user-avatar
    Login

    Hourly Weather Phnom Penh

    Today, 3 April, Friday

    Time Temperature Precipitation Wind Pressure Humidity
    00:00 +29°C° 0 mm 4 mps 756 mmHg 65%
    01:00 +28°C° 0 mm 4 mps 756 mmHg 73%
    02:00 +27°C° 0 mm 4 mps 756 mmHg 75%
    03:00 +27°C° 0 mm 3 mps 756 mmHg 77%
    04:00 +26°C° 0 mm 3 mps 756 mmHg 79%
    05:00 +27°C° 0 mm 3 mps 757 mmHg 78%
    06:00 +27°C° 0 mm 3 mps 757 mmHg 78%
    07:00 +28°C° 0 mm 3 mps 758 mmHg 73%
    08:00 +32°C° 0 mm 4 mps 758 mmHg 63%
    09:00 +34°C° 0 mm 4 mps 758 mmHg 52%
    10:00 +36°C° 0 mm 4 mps 758 mmHg 42%
    11:00 +38°C° 0 mm 4 mps 757 mmHg 39%
    12:00 +39°C° 0 mm 3 mps 756 mmHg 35%
    13:00 +39°C° 0 mm 3 mps 756 mmHg 34%
    14:00 +39°C° 0 mm 3 mps 755 mmHg 34%
    15:00 +39°C° 0 mm 3 mps 755 mmHg 35%
    16:00 +39°C° 0 mm 3 mps 754 mmHg 35%
    17:00 +38°C° 0 mm 3 mps 754 mmHg 38%
    18:00 +37°C° 0 mm 3 mps 755 mmHg 42%
    19:00 +34°C° 0 mm 4 mps 755 mmHg 52%
    20:00 +34°C° 0 mm 4 mps 756 mmHg 54%
    21:00 +33°C° 0 mm 5 mps 756 mmHg 55%
    22:00 +32°C° 0 mm 5 mps 757 mmHg 56%
    23:00 +30°C° 0 mm 5 mps 757 mmHg 61%

    Tomorrow, 4 April, Saturday

    Time Temperature Precipitation Wind Pressure Humidity
    00:00 +29°C° 0 mm 4 mps 757 mmHg 66%
    01:00 +28°C° 0 mm 4 mps 756 mmHg 71%
    02:00 +28°C° 0 mm 3 mps 756 mmHg 74%
    03:00 +27°C° 0 mm 3 mps 756 mmHg 77%
    04:00 +27°C° 0 mm 2 mps 756 mmHg 80%
    05:00 +28°C° 0 mm 2 mps 757 mmHg 78%
    06:00 +28°C° 0 mm 2 mps 757 mmHg 75%
    07:00 +29°C° 0 mm 2 mps 758 mmHg 73%
    08:00 +30°C° 0 mm 3 mps 758 mmHg 68%
    09:00 +33°C° 0 mm 3 mps 758 mmHg 63%
    10:00 +34°C° 0 mm 3 mps 758 mmHg 59%
    11:00 +36°C° 0 mm 2 mps 757 mmHg 52%
    12:00 +37°C° 0 mm 2 mps 756 mmHg 46%
    13:00 +39°C° 0 mm 1 mps 755 mmHg 40%
    14:00 +39°C° 0 mm 1 mps 754 mmHg 37%
    15:00 +40°C° 0 mm 2 mps 754 mmHg 34%
    16:00 +40°C° 0 mm 2 mps 753 mmHg 31%
    17:00 +39°C° 0 mm 2 mps 754 mmHg 33%
    18:00 +38°C° 0 mm 2 mps 754 mmHg 35%
    19:00 +37°C° 0 mm 2 mps 755 mmHg 37%
    20:00 +35°C° 0 mm 4 mps 755 mmHg 43%
    21:00 +34°C° 0 mm 6 mps 756 mmHg 49%
    22:00 +32°C° 0 mm 7 mps 757 mmHg 55%
    23:00 +30°C° 0 mm 6 mps 757 mmHg 61%

    Day after tomorrow, 5 April, Sunday

    Time Temperature Precipitation Wind Pressure Humidity
    00:00 +29°C° 0 mm 5 mps 757 mmHg 66%
    01:00 +28°C° 0 mm 4 mps 757 mmHg 72%
    02:00 +28°C° 0 mm 4 mps 757 mmHg 74%
    03:00 +27°C° 0 mm 3 mps 756 mmHg 77%
    04:00 +27°C° 0 mm 3 mps 756 mmHg 79%
    05:00 +27°C° 0 mm 3 mps 757 mmHg 76%
    06:00 +28°C° 0 mm 3 mps 757 mmHg 73%
    07:00 +29°C° 0 mm 4 mps 758 mmHg 70%
    08:00 +32°C° 0 mm 4 mps 758 mmHg 61%
    09:00 +34°C° 0 mm 4 mps 758 mmHg 52%
    10:00 +36°C° 0 mm 4 mps 758 mmHg 43%
    11:00 +38°C° 0 mm 3 mps 757 mmHg 38%
    12:00 +39°C° 0 mm 3 mps 756 mmHg 33%
    13:00 +41°C° 0 mm 2 mps 755 mmHg 28%
    14:00 +41°C° 0 mm 2 mps 754 mmHg 26%
    15:00 +42°C° 0 mm 2 mps 753 mmHg 24%
    16:00 +43°C° 0 mm 3 mps 753 mmHg 22%
    17:00 +40°C° 0 mm 2 mps 753 mmHg 24%
    18:00 +38°C° 0 mm 2 mps 754 mmHg 27%
    19:00 +36°C° 0 mm 1 mps 754 mmHg 29%
    20:00 +35°C° 0 mm 3 mps 755 mmHg 38%
    21:00 +34°C° 0 mm 4 mps 756 mmHg 48%
    22:00 +33°C° 0 mm 6 mps 756 mmHg 57%
    23:00 +32°C° 0 mm 5 mps 757 mmHg 62%

    6 April, Monday

    Time Temperature Precipitation Wind Pressure Humidity
    00:00 +30°C° 0 mm 5 mps 757 mmHg 66%
    01:00 +30°C° 0 mm 5 mps 757 mmHg 70%
    02:00 +29°C° 0 mm 5 mps 757 mmHg 72%
    03:00 +29°C° 0 mm 5 mps 756 mmHg 74%
    04:00 +28°C° 0 mm 4 mps 756 mmHg 77%
    05:00 +29°C° 0 mm 4 mps 757 mmHg 74%
    06:00 +29°C° 0 mm 4 mps 757 mmHg 72%
    07:00 +30°C° 0 mm 4 mps 758 mmHg 70%
    08:00 +33°C° 0 mm 4 mps 758 mmHg 61%
    09:00 +35°C° 0 mm 4 mps 758 mmHg 51%
    10:00 +37°C° 0 mm 4 mps 758 mmHg 42%
    11:00 +38°C° 0 mm 4 mps 757 mmHg 38%
    12:00 +40°C° 0 mm 3 mps 756 mmHg 34%
    13:00 +42°C° 0 mm 3 mps 755 mmHg 30%
    14:00 +42°C° 0 mm 3 mps 754 mmHg 30%
    15:00 +41°C° 0 mm 4 mps 754 mmHg 31%
    16:00 +41°C° 0 mm 5 mps 753 mmHg 31%
    17:00 +40°C° 0 mm 4 mps 753 mmHg 36%
    18:00 +37°C° 0 mm 4 mps 754 mmHg 40%
    19:00 +36°C° 0 mm 4 mps 754 mmHg 45%
    20:00 +34°C° 0 mm 3 mps 755 mmHg 51%
    21:00 +33°C° 0 mm 3 mps 755 mmHg 57%
    22:00 +31°C° 0 mm 3 mps 756 mmHg 63%
    23:00 +30°C° 0.2 mm 3 mps 756 mmHg 67%

    7 April, Tuesday

    Time Temperature Precipitation Wind Pressure Humidity
    00:00 +30°C° 0.2 mm 3 mps 756 mmHg 71%
    01:00 +29°C° 0.2 mm 3 mps 756 mmHg 75%
    02:00 +29°C° 0.5 mm 3 mps 756 mmHg 77%
    03:00 +28°C° 0.5 mm 4 mps 756 mmHg 79%
    04:00 +28°C° 0.5 mm 4 mps 755 mmHg 81%
    05:00 +28°C° 0.2 mm 4 mps 756 mmHg 79%
    06:00 +29°C° 0.2 mm 4 mps 756 mmHg 77%
    07:00 +29°C° 0.2 mm 4 mps 757 mmHg 76%
    08:00 +32°C° 0 mm 4 mps 757 mmHg 66%
    09:00 +34°C° 0 mm 4 mps 757 mmHg 57%
    10:00 +36°C° 0 mm 4 mps 757 mmHg 48%
    11:00 +38°C° 0 mm 4 mps 757 mmHg 44%
    12:00 +39°C° 0 mm 3 mps 756 mmHg 39%
    13:00 +40°C° 0 mm 3 mps 755 mmHg 35%
    14:00 +39°C° 0.1 mm 3 mps 754 mmHg 37%
    15:00 +38°C° 0.1 mm 4 mps 754 mmHg 40%
    16:00 +38°C° 0.1 mm 4 mps 753 mmHg 42%
    17:00 +36°C° 1.3 mm 4 mps 753 mmHg 50%
    18:00 +34°C° 1.3 mm 3 mps 754 mmHg 58%
    19:00 +31°C° 1.3 mm 3 mps 754 mmHg 66%
    20:00 +30°C° 0.5 mm 3 mps 755 mmHg 68%
    21:00 +30°C° 0.5 mm 2 mps 756 mmHg 70%
    22:00 +30°C° 0.5 mm 2 mps 756 mmHg 72%
    23:00 +29°C° 0.1 mm 2 mps 756 mmHg 73%

    8 April, Wednesday

    Time Temperature Precipitation Wind Pressure Humidity
    00:00 +29°C° 0.1 mm 2 mps 756 mmHg 74%
    01:00 +29°C° 0.1 mm 3 mps 756 mmHg 74%
    02:00 +29°C° 0 mm 3 mps 755 mmHg 76%
    03:00 +29°C° 0 mm 3 mps 755 mmHg 77%
    04:00 +28°C° 0 mm 3 mps 755 mmHg 79%
    05:00 +29°C° 0 mm 4 mps 756 mmHg 78%
    06:00 +29°C° 0 mm 4 mps 756 mmHg 77%
    07:00 +29°C° 0 mm 5 mps 757 mmHg 75%
    08:00 +32°C° 0 mm 4 mps 757 mmHg 68%
    09:00 +34°C° 0 mm 4 mps 757 mmHg 60%
    10:00 +36°C° 0 mm 4 mps 757 mmHg 52%
    11:00 +36°C° 0 mm 4 mps 757 mmHg 49%
    12:00 +37°C° 0 mm 3 mps 756 mmHg 46%
    13:00 +38°C° 0 mm 3 mps 755 mmHg 43%
    14:00 +38°C° 0.1 mm 3 mps 755 mmHg 44%
    15:00 +37°C° 0.1 mm 3 mps 754 mmHg 45%
    16:00 +37°C° 0.1 mm 3 mps 754 mmHg 47%
    17:00 +35°C° 0.5 mm 4 mps 754 mmHg 55%
    18:00 +33°C° 0.5 mm 5 mps 754 mmHg 64%
    19:00 +30°C° 0.5 mm 5 mps 755 mmHg 73%
    20:00 +29°C° 0 mm 5 mps 755 mmHg 71%
    21:00 +29°C° 0 mm 5 mps 756 mmHg 70%
    22:00 +29°C° 0 mm 4 mps 757 mmHg 69%
    23:00 +29°C° 0 mm 4 mps 756 mmHg 71%
    Show more